This is the latest recevied weather packets stored in our database for station/object KB9HUO. If no packets are shown the sender has not sent any weather packets the latest 10 day(s).
| Time | Temp. | Humidity | Pressure | Rain* | Wind** | Luminosity | Snow |
|---|---|---|---|---|---|---|---|
| 1777998686 | 16.67° C | 82% | 1010.4 hPa | 0 mm | - | 21 W/m² | - |
| 1777998383 | 16.67° C | 82% | 1010.2 hPa | 0 mm | - | 40 W/m² | - |
| 1777998081 | 17.22° C | 79% | 1010.3 hPa | 0 mm | - | 35 W/m² | - |
| 1777997778 | 17.22° C | 76% | 1010.2 hPa | 0 mm | - | 28 W/m² | - |
| 1777997475 | 17.22° C | 77% | 1010.2 hPa | 0 mm | - | 58 W/m² | - |
| 1777997173 | 17.22° C | 77% | 1010.2 hPa | 0 mm | - | 39 W/m² | - |
| 1777996870 | 17.22° C | 77% | 1010 hPa | 0 mm | - | 41 W/m² | - |
| 1777996565 | 17.22° C | 76% | 1010 hPa | 0 mm | - | 38 W/m² | - |
| 1777996262 | 17.78° C | 77% | 1010 hPa | 0 mm | - | 52 W/m² | - |
| 1777995958 | 17.22° C | 77% | 1009.9 hPa | 0 mm | - | 108 W/m² | - |
| 1777995654 | 17.22° C | 78% | 1009.8 hPa | 0 mm | - | 102 W/m² | - |
| 1777995352 | 17.22° C | 77% | 1009.7 hPa | 0 mm | - | 74 W/m² | - |
| 1777995049 | 17.22° C | 78% | 1009.6 hPa | 0 mm | - | 95 W/m² | - |
| 1777994746 | 17.22° C | 78% | 1009.6 hPa | 0 mm | - | 78 W/m² | - |
| 1777994442 | 17.22° C | 78% | 1009.5 hPa | 0 mm | - | 102 W/m² | - |
| 1777994137 | 17.22° C | 78% | 1009.3 hPa | 0 mm | - | 113 W/m² | - |
| 1777993835 | 17.22° C | 78% | 1009.7 hPa | 0 mm | - | 92 W/m² | - |
| 1777993531 | 16.67° C | 78% | 1009.6 hPa | 0 mm | - | 86 W/m² | - |
| 1777993227 | 16.67° C | 79% | 1009.5 hPa | 0 mm | - | 104 W/m² | - |
| 1777992923 | 16.67° C | 79% | 1009.5 hPa | 0 mm | - | 95 W/m² | - |
| 1777992622 | 16.67° C | 79% | 1009.5 hPa | 0 mm | - | 80 W/m² | - |
| 1777992319 | 16.67° C | 79% | 1009.6 hPa | 0 mm | - | 112 W/m² | - |
| 1777992016 | 16.67° C | 81% | 1009.5 hPa | 0 mm | - | 109 W/m² | - |
| 1777991714 | 16.67° C | 81% | 1009.5 hPa | 0 mm | - | 119 W/m² | - |
| 1777991411 | 16.67° C | 81% | 1009.2 hPa | 0 mm | - | 120 W/m² | - |
* Rain latest hour (hover to see other rain measurements)
** Current wind speed in m/s (hover to see current wind gust speed)